Jackson, MS

6:02 AM CDT on August 23, 2017 (GMT -0500)
Jackson-Evers International

Weather History for KJAN - May, 2013

Change the Weather History Date:

Monday, May 6, 2013

  Actual Average Record
Temperature  
Mean Temperature 59 °F 70 °F  
Max Temperature 68 °F 81 °F 96 °F (1952)
Min Temperature 50 °F 59 °F 43 °F (1957)
Degree Days  
Heating Degree Days 6 1  
Month to date heating degree days 44 6  
Since 1 July heating degree days 2301 2385  
Cooling Degree Days 0 5  
Month to date cooling degree days 4 29  
Year to date cooling degree days 112 147  
Growing Degree Days 7 (Base 50)    
Moisture  
Dew Point 50 °F    
Average Humidity 76    
Maximum Humidity 93    
Minimum Humidity 58    
Precipitation  
Precipitation 0.00 in 0.15 in 2.44 in (1935)
Month to date precipitation 2.69 0.85  
Year to date precipitation 30.46 20.58  
Sea Level Pressure  
Sea Level Pressure 29.97 in    
Wind  
Wind Speed 6 mph (West)    
Max Wind Speed 16 mph    
Max Gust Speed 24 mph    
Visibility 10 miles    
Events      
T = Trace of Precipitation, MM = Missing Value Source: NWS Daily Summary

Daily Weather History Graph

Daily Weather History Graph

Search for Another Location

Airport or City:

Trip Planner

Search our weather history database for the weather conditions in past years. The results will help you decide how hot, cold, wet, or windy it might be!

Date:

Astronomy

May. 06, 2013 Rise Set
Actual Time 6:09 AM CDT 7:45 PM CDT
Civil Twilight 5:42 AM CDT 8:11 PM CDT
Nautical Twilight 5:11 AM CDT 8:43 PM CDT
Astronomical Twilight 4:37 AM CDT 9:16 PM CDT
Moon 4:00 AM CDT (5/6) 4:54 PM CDT (5/6)
Length of Visible Light 14h 28m
Length of Day
13h 36m
Waning Crescent, 11% of the Moon is Illuminated
May 6
Waning Crescent
May 9
New
May 17
First Quarter
May 24
Full
May 31
Last Quarter

Hourly Weather History & Observations

Time (CDT) Temp. Dew Point Humidity Pressure Visibility Wind Dir Wind Speed Gust Speed Precip Events Conditions
12:54 AM 51.1 °F 46.9 °F 86% 29.98 in 10.0 mi SSW 3.5 mph - N/A   Overcast
1:54 AM 52.0 °F 46.0 °F 80% 29.96 in 10.0 mi SW 4.6 mph - N/A   Overcast
2:54 AM 51.1 °F 44.1 °F 77% 29.95 in 10.0 mi SW 6.9 mph - N/A   Mostly Cloudy
3:54 AM 52.0 °F 44.1 °F 74% 29.96 in 10.0 mi WSW 4.6 mph - N/A   Overcast
4:54 AM 52.0 °F 44.1 °F 74% 29.96 in 10.0 mi SW 4.6 mph - N/A   Overcast
5:54 AM 52.0 °F 45.0 °F 77% 29.96 in 10.0 mi SW 4.6 mph - N/A   Overcast
6:54 AM 52.0 °F 45.0 °F 77% 29.97 in 10.0 mi SW 5.8 mph - N/A   Overcast
7:54 AM 54.0 °F 46.9 °F 77% 29.98 in 10.0 mi West 5.8 mph - N/A   Overcast
8:54 AM 55.9 °F 48.0 °F 75% 29.99 in 10.0 mi WSW 4.6 mph - N/A   Overcast
9:54 AM 59.0 °F 48.9 °F 69% 29.99 in 10.0 mi West 8.1 mph - N/A   Overcast
10:54 AM 62.1 °F 51.1 °F 67% 29.99 in 10.0 mi West 8.1 mph - N/A   Overcast
11:54 AM 64.0 °F 52.0 °F 65% 29.98 in 10.0 mi West 10.4 mph - N/A   Overcast
12:44 PM 64.4 °F 51.8 °F 64% 29.98 in 10.0 mi WSW 13.8 mph 17.3 mph N/A   Overcast
12:54 PM 64.9 °F 52.0 °F 63% 29.97 in 10.0 mi WSW 10.4 mph - N/A   Overcast
1:24 PM 66.2 °F 51.8 °F 60% 29.96 in 10.0 mi West 11.5 mph 20.7 mph N/A   Mostly Cloudy
1:54 PM 66.0 °F 52.0 °F 60% 29.95 in 10.0 mi West 15.0 mph 20.7 mph N/A   Mostly Cloudy
2:54 PM 66.0 °F 52.0 °F 60% 29.95 in 10.0 mi West 12.7 mph - N/A   Mostly Cloudy
3:54 PM 64.0 °F 53.1 °F 67% 29.94 in 10.0 mi West 10.4 mph - N/A   Overcast
4:54 PM 64.9 °F 55.0 °F 70% 29.94 in 10.0 mi WNW 9.2 mph - N/A   Overcast
5:54 PM 66.9 °F 55.0 °F 66% 29.94 in 10.0 mi WNW 9.2 mph 16.1 mph N/A   Mostly Cloudy
6:54 PM 64.9 °F 53.1 °F 65% 29.95 in 10.0 mi NW 9.2 mph - N/A   Scattered Clouds
7:54 PM 62.6 °F 55.4 °F 77% 29.96 in 10.0 mi NNW 3.5 mph - N/A   Mostly Cloudy
8:54 PM 61.0 °F 54.0 °F 78% 29.99 in 10.0 mi WNW 3.5 mph - N/A   Scattered Clouds
9:54 PM 55.9 °F 53.1 °F 90% 29.99 in 10.0 mi Calm Calm - N/A   Clear
10:54 PM 54.0 °F 52.0 °F 93% 29.99 in 10.0 mi Calm Calm - N/A   Clear
11:54 PM 53.1 °F 51.1 °F 93% 29.99 in 10.0 mi Calm Calm - N/A   Clear